FW0655 Weather Reports


Display with metric or nautical units.
time (UTC)temp
F
wind
direction
speed
MPH
gust
MPH
rain 1hr
in
rain 24hr
in
rain mn
in
humidity
%
barometer
mb
20260906014504 64 37 0.0 1.0 0.00 0.00 0.00 85 1012.8
20260906013008 65 37 0.0 2.0 0.00 0.00 0.00 84 1012.7
20260906011502 65 29 0.0 3.0 0.00 0.00 0.00 83 1012.5
20260906010002 66 29 1.0 2.0 0.00 0.00 0.00 82 1012.7
20260906004501 66 29 0.0 3.0 0.00 0.00 0.00 80 1012.4
20260906003105 67 29 0.0 1.0 0.00 0.00 0.00 79 1012.2
20260906001600 68 29 0.0 1.0 0.00 0.00 0.00 77 1012.0
20260906000100 69 29 0.0 1.0 0.00 0.00 0.00 76 1012.2
20260905234559 69 29 0.0 1.0 0.00 0.00 0.00 76 1011.9
20260905233100 69 29 1.0 5.0 0.00 0.00 0.00 75 1012.1
20260905231559 70 32 1.0 5.0 0.00 0.00 0.00 74 1011.9
20260905230058 70 32 0.0 2.0 0.00 0.00 0.00 72 1011.9
20260905224605 71 32 0.0 3.0 0.00 0.00 0.00 70 1011.8
20260905223058 71 33 2.0 6.0 0.00 0.00 0.00 68 1011.9
20260905221603 72 360 2.0 7.0 0.00 0.00 0.00 68 1011.6
20260905220105 72 355 3.0 8.0 0.00 0.00 0.00 66 1011.5
20260905214554 72 355 4.0 8.0 0.00 0.00 0.00 65 1011.3
20260905213054 72 10 2.0 6.0 0.00 0.00 0.00 67 1011.2
20260905211621 72 10 1.0 3.0 0.00 0.00 0.00 68 1011.1
20260905210056 72 34 1.0 3.0 0.00 0.00 0.00 67 1011.0
20260905204557 72 5 4.0 8.0 0.00 0.00 0.00 65 1011.1
20260905203113 73 19 4.0 9.0 0.00 0.00 0.00 64 1011.0
20260905201558 72 46 3.0 6.0 0.00 0.00 0.00 65 1011.1
20260905200057 72 340 3.0 9.0 0.00 0.00 0.00 67 1011.2
20260905194551 73 321 1.0 6.0 0.00 0.00 0.00 64 1011.1
20260905193050 72 15 6.0 11.0 0.00 0.00 0.00 68 1011.1
20260905191549 71 349 1.0 6.0 0.00 0.00 0.00 69 1011.3
20260905190150 72 24 1.0 4.0 0.00 0.00 0.00 66 1011.2
20260905184549 72 17 2.0 5.0 0.00 0.00 0.00 66 1011.2
20260905183054 71 36 1.0 8.0 0.00 0.00 0.00 69 1011.2
20260905181602 72 350 3.0 8.0 0.00 0.00 0.00 66 1011.3
20260905180047 72 22 1.0 5.0 0.00 0.00 0.00 67 1011.1
20260905174551 72 360 1.0 8.0 0.00 0.00 0.00 68 1011.2
20260905173046 72 360 1.0 4.0 0.00 0.00 0.00 67 1011.2
20260905171545 72 342 1.0 6.0 0.00 0.00 0.00 68 1011.5
20260905170042 71 19 1.0 3.0 0.00 0.00 0.00 67 1011.5
20260905164541 70 19 1.0 4.0 0.00 0.00 0.00 71 1011.8
20260905163041 70 19 1.0 4.0 0.00 0.00 0.00 67 1011.7
20260905161539 71 355 1.0 4.0 0.00 0.00 0.00 68 1011.6
20260905160106 69 331 1.0 7.0 0.00 0.00 0.00 72 1011.7
20260905154539 69 15 5.0 11.0 0.00 0.00 0.00 69 1011.8
20260905153035 69 26 3.0 9.0 0.00 0.00 0.00 69 1011.9
20260905151537 69 36 3.0 9.0 0.00 0.00 0.00 69 1011.9
20260905150033 68 53 6.0 11.0 0.00 0.00 0.00 72 1011.9
20260905144531 68 355 3.0 6.0 0.00 0.00 0.00 74 1011.9
20260905143028 67 5 2.0 11.0 0.00 0.00 0.00 76 1012.0
20260905141526 67 5 6.0 11.0 0.00 0.00 0.00 77 1012.0
20260905140025 67 5 5.0 11.0 0.00 0.00 0.00 80 1012.0
20260905134522 65 348 3.0 5.0 0.00 0.00 0.00 88 1011.8
20260905133022 63 342 2.0 5.0 0.00 0.00 0.00 92 1011.9
20260905131519 63 165 0.0 2.0 0.00 0.00 0.00 93 1012.0
20260905130020 62 165 4.0 6.0 0.00 0.00 0.00 94 1012.1
20260905124521 61 215 2.0 5.0 0.00 0.00 0.00 94 1012.3
20260905123019 61 214 0.0 1.0 0.00 0.00 0.00 94 1012.6
20260905121516 60 214 2.0 4.0 0.00 0.00 0.00 93 1012.6
20260905120014 60 203 2.0 4.0 0.00 0.00 0.00 93 1012.4
20260905114513 59 30 2.0 4.0 0.00 0.00 0.00 93 1012.0
20260905113011 58 5 1.0 4.0 0.00 0.00 0.00 93 1011.8
20260905111511 58 5 1.0 3.0 0.00 0.00 0.00 93 1011.7
20260905110011 58 5 1.0 4.0 0.00 0.00 0.00 93 1011.8
20260905104509 57 5 2.0 3.0 0.00 0.00 0.00 93 1011.4
20260905103017 57 5 0.0 2.0 0.00 0.00 0.00 92 1011.1
20260905101510 57 5 1.0 2.0 0.00 0.00 0.00 92 1011.1
20260905100007 57 5 1.0 2.0 0.00 0.00 0.00 92 1010.9
20260905094509 57 5 0.0 2.0 0.00 0.00 0.00 92 1010.7
20260905093005 58 5 0.0 1.0 0.00 0.00 0.00 92 1010.8
20260905091505 58 5 1.0 3.0 0.00 0.00 0.00 92 1010.7
20260905090002 58 5 1.0 3.0 0.00 0.00 0.00 92 1010.7
20260905084501 58 5 0.0 2.0 0.00 0.00 0.00 92 1010.8
20260905083059 59 5 1.0 2.0 0.00 0.00 0.00 92 1010.8
20260905081559 59 5 2.0 3.0 0.00 0.00 0.00 92 1010.8
20260905080101 59 5 0.0 2.0 0.00 0.00 0.00 92 1010.8
20260905074559 59 5 1.0 2.0 0.00 0.00 0.00 91 1010.8
20260905073100 60 5 1.0 3.0 0.00 0.00 0.00 91 1010.9
20260905071552 60 5 1.0 3.0 0.00 0.00 0.00 91 1010.9
20260905070057 60 5 1.0 3.0 0.00 0.00 0.00 91 1011.2
20260905064549 60 5 1.0 3.0 0.00 0.00 0.00 90 1011.2
20260905063048 61 5 0.0 3.0 0.00 0.00 0.00 90 1011.1
20260905061612 61 5 0.0 0.0 0.00 0.00 0.00 90 1011.2
20260905060046 61 5 0.0 0.0 0.00 0.00 0.00 90 1011.4
20260905054542 62 5 0.0 0.0 0.00 0.00 0.00 89 1011.5
20260905053043 62 5 0.0 0.0 0.00 0.00 0.00 89 1011.5
20260905051540 63 5 0.0 0.0 0.00 0.00 0.00 89 1011.5
20260905050037 63 5 0.0 1.0 0.00 0.00 0.00 88 1011.6
20260905044536 64 5 0.0 0.0 0.00 0.03 0.00 88 1011.8
20260905043031 65 5 0.0 0.0 0.00 0.03 0.00 88 1011.7
20260905041529 65 5 0.0 0.0 0.00 0.03 0.00 88 1011.6
20260905040028 66 5 0.0 0.0 0.00 0.03 0.00 88 1011.7
20260905034527 66 5 0.0 0.0 0.00 0.92 0.03 88 1011.5
20260905033031 67 5 0.0 0.0 0.00 0.92 0.03 88 1011.6
20260905031524 67 5 0.0 0.0 0.00 0.92 0.03 88 1011.5
20260905030034 67 5 0.0 0.0 0.00 0.92 0.03 87 1011.6
20260905024523 68 5 0.0 0.0 0.00 0.92 0.03 87 1011.4
20260905023028 68 5 0.0 0.0 0.00 0.92 0.03 87 1011.5
20260905021523 68 5 0.0 2.0 0.00 0.92 0.03 87 1011.4
20260905020021 68 5 1.0 2.0 0.00 0.92 0.03 86 1011.5